Temp
-2 -3 -4 -4 -4 -5 -5 -6 -6 -7 -7 -7 -7 -8 -9 -9 -8 -7 -7 -7 -6 -6 -6 -6 -5 -5 -4 -3 -2 -0 0 0 1 3 6 7 10 11 11 11 11 12 13
-2 -3 -4 -4 -4 -5 -6 -6 -6 -6 -7 -7 -7 -8 -9 -8 -8 -8 -7 -7 -7 -7 -6 -6 -6 -5 -5 -3 -2 -2 -0 1 2 1 5 7 9 10 11 11 11 11 12
-2 -4 -4 -4 -5 -5 -6 -6 -6 -6 -7 -7 -7 -7 -9 -8 -8 -8 -7 -7 -7 -7 -7 -6 -6 -6 -6 -4 -3 -2 -1 0 2 2 3 7 8 9 10 10 11 11 11
-3 -3 -4 -4 -5 -6 -6 -6 -6 -6 -7 -7 -7 -7 -9 -9 -8 -8 -8 -7 -7 -7 -7 -7 -7 -6 -6 -5 -4 -3 -2 -0 1 2 3 6 7 9 9 11 10 10 11
-3 -3 -4 -4 -5 -5 -6 -6 -6 -6 -7 -7 -7 -7 -8 -9 -8 -8 -8 -8 -8 -8 -8 -8 -7 -6 -5 -5 -4 -4 -2 -1 0 2 3 5 7 7 9 9 10 10 10
-3 -3 -4 -4 -5 -5 -6 -6 -6 -6 -6 -7 -7 -7 -8 -9 -9 -8 -9 -8 -8 -8 -8 -8 -7 -5 -4 -4 -4 -4 -3 -2 -1 1 2 4 6 6 8 8 9 10 9
-3 -3 -3 -4 -5 -5 -6 -6 -6 -6 -6 -7 -7 -7 -7 -9 -8 -7 -7 -8 -9 -9 -8 -8 -7 -6 -5 -4 -4 -4 -3 -3 -2 -1 1 2 4 4 7 8 8 9 9
-3 -3 -4 -4 -5 -5 -6 -6 -6 -7 -7 -7 -7 -7 -8 -7 -7 -7 -6 -7 -7 -7 -7 -7 -7 -6 -5 -5 -4 -4 -4 -3 -2 -1 0 2 3 4 5 6 8 8 8
-3 -4 -4 -4 -5 -5 -5 -6 -7 -6 -6 -7 -7 -7 -7 -7 -7 -7 -6 -6 -6 -7 -7 -6 -6 -7 -6 -5 -4 -4 -3 -3 -3 -2 -0 1 2 2 5 5 7 8 8
-3 -4 -4 -4 -5 -5 -6 -6 -7 -7 -7 -6 -6 -7 -7 -8 -7 -7 -7 -7 -7 -6 -6 -6 -6 -7 -6 -6 -5 -4 -4 -4 -3 -2 -1 -0 1 2 3 5 6 7 8
-3 -4 -4 -5 -5 -5 -6 -6 -6 -6 -6 -6 -6 -7 -7 -7 -7 -7 -7 -7 -7 -7 -7 -6 -6 -7 -6 -6 -5 -5 -5 -4 -3 -3 -2 -1 0 1 2 4 5 6 7
-3 -4 -4 -5 -5 -5 -6 -5 -5 -6 -6 -6 -6 -6 -6 -7 -7 -7 -7 -7 -7 -7 -7 -7 -7 -7 -6 -6 -6 -5 -5 -4 -4 -3 -3 -2 -1 0 1 2 3 4 5
-3 -4 -4 -5 -5 -5 -5 -5 -5 -6 -6 -8 -7 -6 -6 -6 -6 -7 -7 -7 -7 -7 -7 -7 -7 -6 -6 -6 -6 -5 -5 -4 -4 -4 -4 -4 -4 -3 -1 0 2 2 3
-3 -4 -4 -5 -5 -5 -6 -6 -6 -6 -8 -8 -8 -8 -7 -7 -6 -7 -7 -7 -7 -7 -7 -6 -6 -6 -6 -6 -5 -5 -6 -6 -6 -6 -5 -5 -4 -3 -2 -2 -0 0 1
-3 -4 -4 -5 -5 -5 -6 -6 -7 -7 -7 -8 -8 -8 -8 -7 -7 -7 -7 -7 -8 -7 -7 -6 -6 -5 -5 -6 -6 -6 -6 -6 -6 -6 -5 -5 -4 -4 -4 -4 -3 -2 -1
-3 -4 -4 -5 -5 -5 -6 -6 -6 -7 -7 -7 -7 -8 -8 -8 -8 -7 -7 -7 -7 -7 -7 -7 -7 -7 -7 -7 -7 -7 -6 -6 -6 -6 -6 -6 -5 -5 -5 -5 -4 -4 -3
-3 -4 -4 -5 -5 -6 -6 -6 -7 -7 -7 -8 -8 -8 -7 -8 -8 -8 -7 -7 -7 -7 -7 -8 -8 -9 -9 -8 -8 -8 -8 -8 -7 -7 -7 -7 -6 -6 -6 -5 -5 -5 -4
-3 -4 -4 -5 -5 -5 -6 -6 -7 -7 -7 -7 -8 -8 -8 -8 -8 -8 -7 -7 -7 -7 -8 -9 -9 -9 -9 -9 -9 -9 -8 -8 -7 -7 -7 -7 -7 -7 -6 -6 -6 -6 -5
-3 -3 -4 -4 -5 -5 -6 -6 -6 -7 -7 -7 -8 -8 -8 -8 -8 -8 -7 -7 -8 -8 -9 -9 -10 -10 -10 -10 -9 -9 -9 -9 -8 -8 -8 -8 -7 -7 -7 -7 -7 -7 -6
-3 -3 -4 -4 -5 -5 -6 -6 -7 -7 -7 -7 -8 -8 -8 -8 -8 -8 -8 -8 -8 -9 -9 -9 -10 -10 -10 -10 -10 -10 -9 -9 -9 -8 -8 -8 -8 -8 -8 -8 -7 -7 -7
-3 -3 -4 -4 -5 -5 -6 -6 -6 -7 -7 -7 -8 -8 -8 -8 -8 -8 -8 -9 -9 -9 -9 -9 -10 -10 -10 -10 -10 -10 -10 -10 -9 -9 -9 -9 -9 -8 -8 -8 -8 -8 -8
-3 -3 -4 -4 -5 -5 -5 -6 -6 -7 -7 -7 -8 -8 -8 -8 -8 -9 -9 -9 -9 -9 -10 -10 -10 -10 -10 -10 -10 -10 -10 -10 -10 -10 -10 -9 -9 -9 -9 -9 -9 -9 -9
-3 -3 -4 -4 -5 -5 -5 -6 -6 -7 -7 -7 -8 -8 -8 -9 -9 -9 -9 -9 -9 -9 -10 -10 -10 -10 -10 -10 -10 -10 -11 -11 -11 -10 -10 -10 -10 -10 -10 -10 -10 -9 -9
-2 -3 -4 -4 -4 -5 -5 -6 -6 -7 -7 -8 -8 -8 -9 -9 -9 -9 -10 -10 -10 -10 -10 -10 -10 -10 -10 -10 -11 -11 -11 -11 -11 -11 -11 -11 -11 -10 -10 -10 -10 -10 -10
-2 -3 -3 -4 -4 -5 -5 -6 -6 -7 -7 -8 -8 -8 -9 -9 -9 -10 -10 -10 -10 -10 -10 -10 -10 -10 -10 -11 -11 -11 -11 -11 -11 -11 -11 -11 -11 -11 -11 -11 -11 -11 -11
-2 -2 -3 -4 -4 -5 -5 -5 -6 -6 -7 -7 -8 -8 -9 -9 -9 -10 -10 -10 -10 -11 -11 -11 -11 -11 -11 -11 -11 -11 -11 -11 -11 -11 -11 -11 -11 -11 -11 -11 -11 -11 -11
Height
1566 1561 1557 1551 1545 1538 1533 1527 1522 1517 1511 1506 1500 1496 1491 1487 1482 1477 1472 1469 1465 1462 1460 1455 1451 1448 1446 1444 1440 1439 1442 1446 1443 1444 1447 1449 1450 1454 1464 1472 1479 1486 1494
1565 1561 1556 1551 1545 1539 1534 1529 1523 1518 1513 1508 1502 1497 1493 1489 1485 1480 1475 1471 1467 1463 1462 1458 1455 1453 1448 1445 1442 1441 1441 1444 1441 1440 1446 1444 1443 1447 1458 1465 1473 1480 1487
1565 1561 1556 1551 1545 1540 1535 1530 1525 1520 1515 1510 1505 1500 1495 1491 1486 1482 1478 1474 1471 1467 1463 1459 1456 1453 1452 1446 1443 1442 1442 1441 1442 1441 1443 1445 1444 1448 1451 1461 1464 1477 1487
1565 1561 1556 1550 1545 1540 1536 1532 1527 1522 1517 1512 1508 1503 1498 1493 1489 1484 1481 1477 1473 1471 1467 1463 1458 1453 1449 1447 1445 1444 1440 1438 1440 1440 1440 1443 1445 1447 1453 1454 1463 1472 1479
1565 1561 1556 1551 1546 1541 1537 1533 1529 1524 1519 1515 1511 1506 1501 1497 1492 1487 1483 1480 1476 1472 1469 1464 1461 1459 1455 1450 1447 1445 1439 1438 1440 1441 1442 1440 1444 1446 1451 1454 1457 1464 1469
1565 1561 1557 1552 1547 1543 1539 1535 1531 1527 1522 1517 1513 1508 1504 1500 1496 1490 1485 1481 1479 1476 1471 1468 1464 1459 1456 1452 1451 1445 1440 1441 1441 1441 1442 1442 1444 1447 1446 1448 1450 1449 1454
1565 1561 1557 1552 1548 1544 1540 1536 1533 1529 1525 1520 1516 1511 1507 1503 1499 1494 1489 1484 1480 1477 1473 1468 1463 1460 1455 1452 1448 1443 1442 1439 1440 1441 1442 1441 1442 1444 1447 1448 1452 1456 1460
1565 1562 1558 1554 1550 1546 1542 1537 1534 1531 1527 1523 1519 1515 1510 1506 1502 1498 1493 1488 1483 1479 1475 1471 1466 1460 1455 1452 1450 1447 1445 1441 1439 1439 1439 1436 1440 1441 1443 1444 1448 1453 1457
1565 1563 1560 1556 1552 1548 1544 1539 1536 1533 1529 1526 1522 1518 1513 1509 1505 1501 1497 1491 1486 1483 1478 1474 1469 1465 1461 1456 1451 1447 1446 1445 1441 1439 1437 1437 1440 1440 1440 1441 1444 1448 1451
1565 1563 1560 1557 1554 1550 1547 1543 1538 1535 1531 1528 1525 1521 1517 1512 1508 1504 1500 1496 1491 1486 1483 1479 1474 1469 1465 1459 1455 1451 1447 1444 1441 1439 1438 1438 1438 1437 1438 1440 1441 1443 1447
1565 1564 1562 1559 1556 1552 1549 1545 1541 1538 1534 1531 1527 1524 1520 1516 1511 1507 1503 1499 1495 1491 1485 1481 1478 1475 1471 1466 1460 1455 1452 1448 1444 1442 1438 1437 1437 1437 1438 1439 1439 1440 1444
1566 1564 1563 1561 1558 1555 1551 1547 1543 1540 1536 1533 1530 1526 1523 1519 1515 1510 1506 1503 1499 1495 1490 1487 1482 1478 1473 1470 1465 1461 1457 1452 1450 1445 1441 1440 1438 1437 1437 1437 1438 1439 1438
1566 1565 1563 1561 1559 1557 1553 1550 1546 1542 1539 1535 1532 1529 1526 1523 1519 1515 1510 1506 1503 1499 1496 1493 1488 1483 1479 1474 1469 1464 1460 1457 1453 1448 1448 1445 1442 1440 1439 1437 1436 1436 1435
1567 1566 1564 1562 1561 1559 1555 1552 1549 1544 1541 1539 1535 1532 1529 1526 1521 1517 1513 1509 1506 1503 1500 1497 1494 1489 1484 1479 1472 1468 1466 1463 1458 1456 1452 1451 1448 1445 1441 1439 1437 1437 1435
1567 1567 1565 1564 1562 1560 1558 1554 1551 1548 1545 1542 1539 1536 1532 1528 1525 1522 1518 1513 1510 1507 1502 1499 1494 1489 1485 1481 1477 1475 1472 1468 1463 1460 1459 1456 1451 1448 1445 1444 1443 1438 1433
1568 1567 1566 1565 1563 1561 1559 1557 1554 1551 1548 1546 1543 1540 1537 1534 1530 1526 1523 1519 1515 1510 1505 1501 1497 1493 1490 1487 1485 1482 1475 1470 1464 1467 1463 1459 1454 1453 1451 1448 1446 1441 1437
1568 1567 1566 1565 1564 1562 1561 1559 1557 1554 1551 1548 1545 1543 1539 1536 1533 1529 1526 1523 1519 1515 1510 1506 1502 1499 1496 1492 1488 1484 1482 1483 1481 1474 1467 1467 1464 1461 1455 1453 1450 1446 1442
1566 1566 1566 1565 1564 1562 1561 1559 1558 1556 1553 1551 1547 1544 1541 1538 1535 1532 1529 1526 1522 1518 1514 1511 1508 1505 1502 1499 1496 1493 1490 1486 1480 1477 1474 1472 1467 1464 1461 1457 1454 1449 1445
1564 1564 1564 1564 1563 1562 1561 1559 1557 1555 1554 1552 1550 1547 1544 1540 1537 1535 1531 1528 1524 1522 1519 1516 1513 1510 1507 1504 1501 1497 1493 1489 1486 1483 1481 1477 1472 1469 1465 1463 1458 1455 1451
1561 1562 1562 1562 1561 1560 1560 1558 1557 1555 1553 1551 1550 1547 1545 1542 1540 1535 1532 1530 1527 1525 1523 1520 1518 1514 1511 1508 1504 1501 1498 1494 1491 1487 1483 1479 1476 1472 1467 1464 1460 1458 1455
1559 1559 1560 1560 1559 1559 1558 1557 1555 1554 1552 1550 1549 1547 1545 1542 1540 1537 1535 1532 1530 1528 1526 1523 1521 1518 1515 1511 1508 1504 1500 1497 1494 1490 1486 1482 1479 1475 1471 1467 1465 1461 1458
1556 1556 1556 1556 1556 1556 1556 1555 1554 1553 1551 1550 1548 1546 1545 1544 1541 1539 1536 1534 1532 1529 1527 1525 1523 1520 1517 1514 1511 1507 1503 1500 1496 1492 1489 1486 1482 1478 1475 1472 1468 1463 1461
1553 1553 1553 1553 1553 1553 1553 1552 1552 1551 1550 1549 1548 1547 1545 1544 1542 1540 1538 1536 1533 1531 1529 1527 1524 1522 1519 1517 1514 1510 1507 1503 1499 1496 1492 1488 1485 1481 1478 1474 1470 1466 1463
1549 1550 1550 1550 1551 1550 1550 1550 1550 1550 1550 1549 1548 1547 1546 1544 1543 1541 1539 1537 1535 1532 1530 1527 1525 1523 1520 1518 1515 1512 1509 1506 1502 1499 1495 1492 1488 1484 1480 1476 1472 1468 1464
1545 1546 1546 1547 1547 1547 1547 1547 1547 1548 1548 1547 1547 1546 1545 1544 1542 1541 1539 1538 1536 1534 1531 1529 1526 1524 1521 1519 1516 1513 1511 1508 1505 1501 1498 1494 1490 1486 1482 1478 1473 1470 1466
1541 1542 1543 1543 1543 1544 1544 1544 1545 1545 1545 1545 1544 1544 1543 1542 1542 1541 1539 1538 1536 1534 1532 1530 1527 1525 1522 1520 1517 1514 1512 1509 1505 1502 1499 1495 1491 1488 1484 1480 1476 1472 1467
Wind_Speed
21 21 22 26 29 28 27 27 27 24 25 26 25 22 23 27 28 24 21 20 19 21 20 19 19 19 18 14 9 3 7 11 18 25 19 10 24 39 41 40 44 39 42
20 19 22 26 28 27 27 27 27 26 24 26 26 24 24 28 29 25 22 20 20 21 21 21 22 21 19 17 13 7 6 10 16 20 23 14 10 20 47 43 33 30 45
19 18 22 26 28 26 25 26 27 26 26 25 25 25 26 30 29 25 22 21 19 19 21 21 22 21 20 20 16 11 5 9 11 17 18 16 6 5 30 35 33 36 47
18 19 22 26 27 24 24 24 26 25 26 26 25 24 25 29 29 25 21 21 21 19 20 18 19 22 22 20 17 14 8 5 10 13 13 14 15 6 16 30 41 42 39
16 19 23 25 24 22 22 23 24 25 26 26 25 25 26 27 29 26 23 21 21 21 21 21 22 21 18 17 17 14 10 5 6 9 9 11 21 8 19 19 35 42 41
16 19 22 23 23 22 21 22 23 24 25 26 26 26 26 26 27 25 22 22 22 21 22 23 22 23 21 18 15 11 9 6 4 7 7 8 19 12 16 20 17 14 18
16 19 21 22 22 21 20 20 22 24 23 25 26 25 26 26 27 25 24 23 22 22 23 25 26 26 25 23 17 15 11 7 4 6 8 6 10 10 17 24 21 23 24
16 19 20 20 21 20 20 20 20 22 23 24 25 25 24 26 27 26 25 25 24 24 25 25 27 28 28 25 20 17 16 11 4 3 7 7 9 11 11 16 22 19 21
16 18 19 20 20 20 21 21 20 19 21 21 23 24 25 25 26 27 28 28 26 25 25 25 27 28 27 25 22 19 18 16 10 4 4 7 10 9 10 11 18 22 23
16 17 17 19 20 21 21 20 18 19 20 19 20 23 25 24 25 26 28 29 29 27 26 25 26 26 25 25 25 23 22 21 17 8 3 1 4 8 7 10 13 19 20
14 14 16 17 19 20 21 21 18 18 20 21 22 23 23 25 26 25 27 29 28 27 27 27 25 24 24 24 24 25 22 17 16 17 15 10 3 3 5 8 9 17 21
12 13 14 16 18 19 21 23 21 21 22 23 24 25 26 26 25 25 25 26 25 26 27 25 24 22 23 24 25 23 21 20 19 20 20 19 15 9 3 2 5 8 11
10 11 13 15 17 19 20 22 22 22 23 23 24 25 27 28 27 25 25 24 24 23 23 22 22 22 22 23 25 26 27 27 26 26 24 23 21 17 12 5 1 6 6
7 9 11 12 15 16 18 20 21 22 22 22 23 24 26 27 28 28 27 25 24 21 20 21 22 24 26 26 27 28 29 30 29 28 27 23 19 18 18 15 10 3 3
6 7 9 11 13 14 16 18 19 20 21 21 22 21 25 27 27 25 26 25 24 23 22 23 25 26 28 30 30 30 29 28 29 29 27 26 24 23 22 19 16 15 13
4 5 7 10 11 13 14 15 17 18 18 19 20 21 21 22 22 22 22 21 21 22 25 28 29 30 31 31 31 30 31 31 30 27 27 27 27 26 25 22 20 20 18
3 4 6 8 10 11 12 13 14 16 17 17 18 18 20 20 21 20 20 20 20 22 26 28 29 30 30 30 30 30 30 28 26 26 26 25 24 24 25 25 24 22 21
1 3 4 6 8 10 11 12 13 14 15 16 17 18 19 19 20 20 19 19 21 25 27 27 27 27 27 28 28 28 28 27 27 26 25 24 23 23 24 25 25 24 23
1 1 3 4 7 9 10 11 12 13 14 14 14 15 17 18 19 18 20 24 25 25 25 25 25 25 25 26 26 26 27 27 27 26 25 24 23 23 22 22 22 22 21
3 1 1 2 4 6 8 8 10 12 12 13 14 15 16 16 17 21 22 22 23 24 24 24 24 24 24 25 25 26 26 26 26 27 26 26 24 23 22 21 21 21 21
5 4 2 1 2 4 5 6 7 9 10 11 12 14 15 16 17 18 20 21 22 23 23 23 23 24 24 24 25 25 26 26 27 27 27 26 26 25 23 22 20 20 20
7 6 4 2 1 1 2 4 5 6 8 9 9 10 11 12 14 15 17 18 20 21 21 22 22 23 23 24 25 25 26 26 27 27 27 26 26 25 24 23 23 21 20
9 8 7 5 3 2 1 2 3 3 5 6 7 8 9 10 11 13 14 15 17 18 18 19 20 21 22 22 23 24 25 26 26 27 26 26 26 25 25 25 24 24 23
10 9 8 7 6 5 4 3 3 2 3 4 5 6 7 8 9 10 12 13 14 15 16 17 18 19 20 21 22 22 23 23 24 24 24 25 25 25 25 24 24 24 24
12 10 9 9 8 7 7 6 5 4 3 3 3 3 4 5 6 8 9 11 12 13 14 15 16 17 18 19 20 20 21 22 22 23 23 24 24 24 24 25 25 24 24
14 13 11 11 11 10 9 8 7 6 5 4 3 3 3 3 4 6 7 8 10 11 12 13 14 15 16 16 17 18 19 20 21 22 23 23 24 24 24 24 24 24 24
Wind_Direction
359 356 354 359 2 5 9 10 8 6 7 9 12 8 13 17 18 19 19 20 19 16 20 16 20 16 15 12 7 314 242 240 249 257 260 267 212 208 210 215 216 221 215
359 357 357 360 3 7 10 12 13 12 13 14 16 19 22 23 18 18 21 20 21 17 15 18 18 14 12 12 7 354 259 251 258 272 262 274 201 213 210 217 213 221 214
0 360 359 2 6 7 11 14 15 15 17 17 18 21 28 27 17 19 23 22 20 20 15 16 15 9 11 9 7 356 303 245 249 270 270 245 241 238 204 212 213 212 216
2 2 2 4 5 7 12 16 16 17 18 20 21 23 29 28 18 18 25 25 26 22 19 19 18 15 11 7 3 355 346 271 249 268 272 243 252 220 221 199 198 209 215
5 5 6 3 6 10 16 17 19 20 19 20 22 26 30 28 20 17 26 28 27 22 21 21 23 22 22 18 5 356 354 337 245 259 269 241 231 253 244 228 205 209 209
7 9 7 5 10 13 16 19 20 21 20 21 24 27 30 27 20 20 28 29 28 24 20 19 21 23 26 27 19 10 3 333 272 248 256 233 217 260 221 241 243 241 233
10 12 10 11 14 16 15 18 21 21 20 21 25 28 30 30 26 27 26 31 29 26 24 20 21 21 23 24 28 26 15 349 307 261 256 255 235 239 220 201 220 230 232
14 17 17 18 18 18 16 19 22 20 21 21 22 28 28 30 29 31 31 33 32 29 26 25 23 21 20 20 27 33 31 21 4 263 273 261 266 248 229 203 197 217 233
19 23 24 23 20 21 22 18 20 22 23 23 22 25 28 29 30 29 32 34 34 30 28 26 25 23 20 21 28 33 35 37 34 6 282 285 260 267 237 227 200 211 230
23 28 29 27 26 25 24 23 21 24 26 28 26 27 28 27 28 28 30 33 31 30 30 30 31 25 23 25 29 32 32 30 32 45 85 243 264 267 255 244 220 214 219
23 30 32 33 31 30 27 26 28 30 31 34 34 30 31 29 27 28 30 32 30 29 28 30 30 29 29 32 34 35 34 33 39 43 52 65 83 216 240 226 228 211 215
23 27 31 34 34 32 29 28 33 33 33 34 36 35 33 31 30 30 30 31 30 32 33 32 32 32 32 37 41 42 42 46 47 47 46 47 51 55 42 242 214 216 209
26 28 31 32 30 31 30 31 31 36 33 29 30 30 30 29 31 33 31 31 31 36 39 38 38 40 42 42 43 43 44 44 46 46 45 43 41 40 45 46 267 199 197
29 31 34 33 34 32 30 32 32 32 32 29 28 26 28 27 25 25 26 28 31 35 41 45 46 48 46 45 43 42 43 42 42 43 43 42 44 45 45 48 53 185 170
32 34 39 37 33 36 35 34 34 35 33 30 29 26 27 27 26 22 20 22 24 29 38 40 41 41 42 43 42 40 39 39 40 41 40 38 44 46 43 40 42 43 49
33 34 38 40 41 41 40 36 36 37 36 35 33 33 34 31 27 25 26 25 27 29 37 39 40 39 37 35 35 35 35 34 34 34 36 35 37 39 41 42 41 39 38
41 36 40 40 41 45 48 46 43 36 33 34 35 35 34 31 29 30 29 26 30 36 40 38 38 37 37 35 32 32 33 31 31 32 33 32 34 36 35 35 37 38 38
45 36 42 42 44 45 47 48 47 46 41 37 35 33 36 37 35 32 33 35 38 39 40 37 36 35 36 36 35 33 31 29 30 31 31 29 29 30 30 32 29 30 32
225 54 45 41 44 45 44 45 46 46 47 45 42 40 38 37 37 36 36 39 40 38 37 37 36 34 34 34 35 35 34 31 31 31 29 27 27 28 27 27 28 28 28
214 207 55 47 42 44 43 43 44 43 44 45 43 43 44 41 40 42 42 41 40 39 38 35 33 33 33 32 33 33 34 34 32 31 29 28 26 25 24 22 21 19 20
214 209 208 114 46 41 41 44 44 44 42 44 42 40 40 40 40 40 41 41 40 38 35 35 33 31 31 32 32 31 31 32 31 31 29 28 26 25 22 21 19 17 13
216 217 218 215 214 26 27 32 38 43 43 43 45 45 43 43 44 43 41 40 39 37 34 33 32 31 30 29 29 29 29 28 27 27 26 26 25 23 22 21 19 17 13
220 222 224 230 232 244 291 342 9 28 39 40 40 42 43 43 45 44 43 41 39 37 35 32 30 29 28 28 28 27 26 25 24 22 21 22 21 20 20 18 16 16 15
223 226 229 235 242 245 255 279 300 328 5 25 33 34 38 37 38 41 41 39 37 35 32 30 29 27 26 25 24 24 24 23 21 20 18 19 17 15 15 16 15 13 10
224 228 234 237 245 249 250 260 273 287 303 334 357 11 25 32 32 35 36 36 35 33 31 30 27 25 24 23 22 20 20 19 19 18 17 16 14 13 12 12 10 10 8
227 232 235 240 245 251 254 256 262 269 274 283 298 315 336 4 14 22 28 28 27 28 28 27 26 23 21 19 18 17 15 14 13 12 11 11 9 8 7 6 5 5 4